This demonstration page uses our WeatherBlox Daily Observations layout. Learn more.

Left ArrowRight Arrow

41.86663, -103.66717

Hourly Observations for November 5, 2020

Temp ( °F °C ) Dew Point ( °F °C ) Humidity (%) Winds ( mph kmh ) Pressure ( in mb ) Visibility ( mi km ) Precip ( " mm )
12:53 am 00:53 Clear 40 4.4 30 -1.1 68 68 NW 7 11 30.23 1024 10 16 0.00 0.00
1:53 am 01:53 Clear 40 4.4 30 -1.1 68 68 NNW 9 15 30.24 1024 10 16 0.00 0.00
2:53 am 02:53 Clear 38 3.3 29 -1.7 70 70 NNW 9 15 30.24 1024 10 16 0.00 0.00
3:53 am 03:53 Clear 37 2.8 29 -1.7 73 73 NW 8 13 30.25 1025 10 16 0.00 0.00
4:53 am 04:53 Clear 33 0.6 28 -2.2 82 82 W 6 9 30.31 1026 10 16 0.00 0.00
5:53 am 05:53 Clear 31 -0.6 28 -2.2 89 89 N 3 6 30.32 1027 10 16 0.00 0.00
6:53 am 06:53 Sunny 31 -0.6 27 -2.8 85 85 N 5 7 30.33 1027 10 16 0.00 0.00
7:53 am 07:53 Sunny 40 4.4 30 -1.1 68 68 NNW 3 6 30.31 1026 10 16 0.00 0.00
8:53 am 08:53 Sunny 52 11.1 33 0.6 49 49 Calm 30.28 1025 10 16 0.00 0.00
9:53 am 09:53 Sunny 55 12.8 35 1.7 47 47 Calm 30.25 1025 10 16 0.00 0.00
10:53 am 10:53 Sunny 65 18.3 32 0 29 29 Calm 30.22 1023 10 16 0.00 0.00
11:53 am 11:53 Hazy 77 25 26 -3.3 15 15 WSW 17 28 30.14 1021 3 5 0.00 0.00
11:56 am 11:56 Hazy 77 25 25 -4 14 14 WSW 20 31 29.95 1014 2 2 0.00 0.00
12:14 pm 12:14 Hazy 78 25.6 25 -3.9 14 14 WSW 16 26 29.93 1014 3 5 0.00 0.00
12:53 pm 12:53 Sunny 79 26.1 25 -3.9 14 14 SW 15 24 30.09 1019 10 16 0.00 0.00
1:53 pm 13:53 Sunny 80 26.7 25 -3.9 13 13 SW 12 19 30.06 1018 10 16 0.00 0.00
2:53 pm 14:53 Sunny 80 26.7 25 -3.9 13 13 SW 15 24 30.05 1018 10 16 0.00 0.00
3:53 pm 15:53 Sunny 76 24.4 26 -3.3 16 16 W 8 13 30.05 1018 10 16 0.00 0.00
4:53 pm 16:53 Clear 66 18.9 28 -2.2 24 24 SW 8 13 30.09 1019 10 16 0.00 0.00
5:53 pm 17:53 Clear 62 16.7 30 -1.1 30 30 S 6 9 30.10 1019 10 16 0.00 0.00
6:53 pm 18:53 Clear 61 16.1 30 -1.1 31 31 Calm 30.10 1019 10 16 0.00 0.00
7:53 pm 19:53 Clear 60 15.6 31 -0.6 33 33 SW 5 7 30.06 1018 10 16 0.00 0.00
8:53 pm 20:53 Clear 47 8.3 32 0 56 56 E 3 6 30.05 1018 10 16 0.00 0.00
9:53 pm 21:53 Clear 43 6.1 32 0 65 65 NE 5 7 30.04 1017 10 16 0.00 0.00
10:53 pm 22:53 Clear 44 6.7 32 0 63 63 NE 7 11 29.98 1015 10 16 0.00 0.00
11:53 pm 23:53 Clear 43 6.1 30 -1.1 60 60 ENE 3 6 29.94 1014 10 16 0.00 0.00

Powered by AerisWeather